DH4NBB-12 Weather Reports


Display with metric or nautical units.
time (UTC)temp
F
wind
direction
speed
MPH
gust
MPH
rain 1hr
in
rain 24hr
in
rain mn
in
humidity
%
barometer
mb
20220809230501 70 0 0.0 0.0 0.00 0.00 0.00 50 989.0
20220809224956 70 0 0.0 0.0 0.00 0.00 0.00 50 989.0
20220809223450 71 0 0.0 0.0 0.00 0.00 0.00 49 989.0
20220809221945 71 0 0.0 0.0 0.00 0.00 0.00 48 989.0
20220809220439 72 0 0.0 0.0 0.00 0.00 0.00 47 989.0
20220809214933 72 0 0.0 0.0 0.00 0.00 0.00 47 988.0
20220809213428 73 0 0.0 0.0 0.00 0.00 0.00 46 988.0
20220809211922 73 0 0.0 0.0 0.00 0.00 0.00 45 988.0
20220809210417 74 0 0.0 0.0 0.00 0.00 0.00 45 988.0
20220809204911 75 0 0.0 0.0 0.00 0.00 0.00 44 988.0
20220809203406 76 0 0.0 0.0 0.00 0.00 0.00 43 988.0
20220809201900 76 0 0.0 0.0 0.00 0.00 0.00 42 988.0
20220809200355 78 0 0.0 0.0 0.00 0.00 0.00 41 988.0
20220809194849 78 0 0.0 0.0 0.00 0.00 0.00 41 988.0
20220809193343 80 0 0.0 0.0 0.00 0.00 0.00 39 988.0
20220809191837 80 0 0.0 0.0 0.00 0.00 0.00 40 988.0
20220809190332 82 0 0.0 0.0 0.00 0.00 0.00 38 988.0
20220809184827 83 0 0.0 0.0 0.00 0.00 0.00 37 987.0
20220809183321 86 0 0.0 0.0 0.00 0.00 0.00 36 988.0
20220809181815 88 0 0.0 0.0 0.00 0.00 0.00 35 988.0
20220809180310 91 0 0.0 0.0 0.00 0.00 0.00 33 988.0
20220809173259 101 0 0.0 0.0 0.00 0.00 0.00 29 988.0
20220809171753 99 0 0.0 0.0 0.00 0.00 0.00 29 988.0
20220809170248 98 0 0.0 0.0 0.00 0.00 0.00 30 988.0
20220809164742 97 0 0.0 0.0 0.00 0.00 0.00 31 988.0
20220809163236 97 0 0.0 0.0 0.00 0.00 0.00 30 988.0
20220809161731 105 0 0.0 0.0 0.00 0.00 0.00 28 988.0
20220809160225 105 0 0.0 0.0 0.00 0.00 0.00 27 988.0
20220809154719 104 0 0.0 0.0 0.00 0.00 0.00 28 988.0
20220809153214 103 0 0.0 0.0 0.00 0.00 0.00 29 988.0
20220809151709 100 0 0.0 0.0 0.00 0.00 0.00 30 988.0
20220809150203 97 0 0.0 0.0 0.00 0.00 0.00 31 988.0
20220809144657 95 0 0.0 0.0 0.00 0.00 0.00 32 988.0
20220809143152 94 0 0.0 0.0 0.00 0.00 0.00 33 988.0
20220809140140 91 0 0.0 0.0 0.00 0.00 0.00 35 988.0
20220809134635 90 0 0.0 0.0 0.00 0.00 0.00 35 988.0
20220809133129 90 0 0.0 0.0 0.00 0.00 0.00 35 988.0
20220809131624 89 0 0.0 0.0 0.00 0.00 0.00 36 989.0
20220809130118 88 0 0.0 0.0 0.00 0.00 0.00 36 989.0
20220809124613 88 0 0.0 0.0 0.00 0.00 0.00 36 989.0
20220809123107 87 0 0.0 0.0 0.00 0.00 0.00 37 989.0
20220809121601 86 0 0.0 0.0 0.00 0.00 0.00 38 989.0
20220809120056 85 0 0.0 0.0 0.00 0.00 0.00 38 989.0
20220809113045 84 0 0.0 0.0 0.00 0.00 0.00 38 989.0
20220809111538 83 0 0.0 0.0 0.00 0.00 0.00 39 989.0
20220809110034 83 0 0.0 0.0 0.00 0.00 0.00 39 989.0
20220809104528 82 0 0.0 0.0 0.00 0.00 0.00 40 989.0
20220809103023 81 0 0.0 0.0 0.00 0.00 0.00 41 990.0
20220809101517 81 0 0.0 0.0 0.00 0.00 0.00 42 990.0
20220809100011 80 0 0.0 0.0 0.00 0.00 0.00 42 990.0
20220809094505 77 0 0.0 0.0 0.00 0.00 0.00 45 989.0
20220809093000 78 0 0.0 0.0 0.00 0.00 0.00 44 990.0
20220809091454 78 0 0.0 0.0 0.00 0.00 0.00 44 990.0
20220809085948 77 0 0.0 0.0 0.00 0.00 0.00 45 990.0
20220809084443 76 0 0.0 0.0 0.00 0.00 0.00 47 990.0
20220809082937 75 0 0.0 0.0 0.00 0.00 0.00 47 990.0
20220809081431 74 0 0.0 0.0 0.00 0.00 0.00 49 990.0
20220809075926 74 0 0.0 0.0 0.00 0.00 0.00 49 990.0
20220809074421 73 0 0.0 0.0 0.00 0.00 0.00 51 990.0
20220809072915 72 0 0.0 0.0 0.00 0.00 0.00 50 990.0
20220809071410 70 0 0.0 0.0 0.00 0.00 0.00 55 990.0
20220809065904 69 0 0.0 0.0 0.00 0.00 0.00 56 990.0
20220809064358 68 0 0.0 0.0 0.00 0.00 0.00 57 990.0
20220809062853 66 0 0.0 0.0 0.00 0.00 0.00 59 990.0
20220809061347 65 0 0.0 0.0 0.00 0.00 0.00 60 990.0
20220809055842 64 0 0.0 0.0 0.00 0.00 0.00 60 990.0
20220809054336 63 0 0.0 0.0 0.00 0.00 0.00 61 990.0
20220809052831 62 0 0.0 0.0 0.00 0.00 0.00 61 989.0
20220809051325 61 0 0.0 0.0 0.00 0.00 0.00 62 989.0
20220809045820 60 0 0.0 0.0 0.00 0.00 0.00 63 988.0
20220809044314 60 0 0.0 0.0 0.00 0.00 0.00 63 988.0
20220809042809 61 0 0.0 0.0 0.00 0.00 0.00 62 988.0
20220809041303 60 0 0.0 0.0 0.00 0.00 0.00 62 988.0
20220809035757 61 0 0.0 0.0 0.00 0.00 0.00 61 987.0
20220809034252 61 0 0.0 0.0 0.00 0.00 0.00 60 987.0
20220809032746 61 0 0.0 0.0 0.00 0.00 0.00 60 987.0
20220809031241 62 0 0.0 0.0 0.00 0.00 0.00 59 987.0
20220809025734 63 0 0.0 0.0 0.00 0.00 0.00 58 987.0
20220809024229 63 0 0.0 0.0 0.00 0.00 0.00 57 987.0
20220809022723 64 0 0.0 0.0 0.00 0.00 0.00 57 988.0
20220809021218 63 0 0.0 0.0 0.00 0.00 0.00 58 987.0
20220809015713 63 0 0.0 0.0 0.00 0.00 0.00 58 987.0
20220809014207 63 0 0.0 0.0 0.00 0.00 0.00 57 987.0
20220809012701 65 0 0.0 0.0 0.00 0.00 0.00 55 987.0
20220809011156 66 0 0.0 0.0 0.00 0.00 0.00 53 987.0
20220809004145 67 0 0.0 0.0 0.00 0.00 0.00 53 987.0
20220809002639 67 0 0.0 0.0 0.00 0.00 0.00 52 987.0
20220809001134 67 0 0.0 0.0 0.00 0.00 0.00 51 987.0
20220808235628 68 0 0.0 0.0 0.00 0.00 0.00 51 987.0
20220808234122 68 0 0.0 0.0 0.00 0.00 0.00 50 987.0
20220808232616 69 0 0.0 0.0 0.00 0.00 0.00 49 987.0